Location: Waco, TX
(31.5480°N, 97.1670°W)
Time: 20:42:43
(UTC-05:00)

ISS - All Passes

Search period start: 16 May 2021 00:00
Search period end: 26 May 2021 00:00
Orbit: 417 x 422 km, 51.6° (Epoch: 16 May)

Date Brightness Start Highest point End Pass type
(mag) Time Alt. Az. Time Alt. Az. Time Alt. Az.
16 May - 03:44:38 10° N 03:45:59 12° NNE 03:47:19 10° NE visible
16 May - 05:19:45 10° NW 05:23:07 71° SW 05:26:28 10° SE visible
16 May - 20:22:46 10° SSW 20:25:57 42° SE 20:29:08 10° ENE daylight
16 May - 22:00:44 10° WNW 22:02:54 16° NW 22:05:03 10° N visible
17 May - 04:32:21 10° NW 04:35:41 57° NE 04:38:59 10° ESE visible
17 May - 19:35:58 10° S 19:38:37 22° SE 19:41:15 10° ENE daylight
17 May - 21:12:27 10° W 21:15:18 25° NW 21:18:10 10° NNE visible
18 May - 03:45:08 10° NNW 03:48:10 30° NE 03:51:12 10° ESE night (unlit)
18 May - 05:22:26 10° W 05:24:47 18° SW 05:27:08 10° S visible
18 May - 18:50:09 10° SE 18:51:19 11° SE 18:52:29 10° ESE daylight
18 May - 20:24:33 10° WSW 20:27:46 45° NW 20:31:01 10° NNE daylight
19 May - 02:58:09 10° N 03:00:36 18° NE 03:03:03 10° E night (unlit)
19 May - 04:34:23 10° WNW 04:37:28 34° SW 04:40:32 10° SSE night (unlit)
19 May - 19:36:58 10° SW 19:40:18 89° SE 19:43:40 10° NE daylight
19 May - 21:17:03 10° NW 21:17:32 10° NNW 21:18:01 10° NNW visible
20 May - 02:11:34 10° N 02:12:57 12° NNE 02:14:19 10° NE night (unlit)
20 May - 03:46:43 10° NW 03:50:04 70° SW 03:53:25 10° SE night (unlit)
20 May - 18:49:43 10° SSW 18:52:54 42° SE 18:56:06 10° ENE daylight
20 May - 20:27:43 10° WNW 20:29:51 16° NW 20:32:00 10° N daylight
21 May - 02:59:18 10° NW 03:02:37 57° NE 03:05:56 10° ESE night (unlit)
21 May - 18:02:54 10° S 18:05:33 22° SE 18:08:12 10° ENE daylight
21 May - 19:39:23 10° W 19:42:14 25° NW 19:45:06 10° NNE daylight
22 May - 02:12:04 10° NNW 02:15:06 30° NE 02:18:08 10° ESE night (unlit)
22 May - 03:49:23 10° W 03:51:43 18° SW 03:54:03 10° S night (unlit)
22 May - 17:17:02 10° SSE 17:18:14 12° SE 17:19:26 10° ESE daylight
22 May - 18:51:29 10° WSW 18:54:42 45° NW 18:57:56 10° NNE daylight
23 May - 01:25:04 10° N 01:27:31 19° NE 01:29:58 10° E visible
23 May - 03:01:18 10° WNW 03:04:22 33° SW 03:07:26 10° SSE night (unlit)
23 May - 18:03:53 10° SW 18:07:13 90° NNW 18:10:35 10° NE daylight
23 May - 19:44:03 10° NW 19:44:27 10° NNW 19:44:50 10° NNW daylight
24 May - 00:38:28 10° N 00:39:51 12° NNE 00:41:14 10° NE visible
24 May - 02:13:37 10° NW 02:16:58 69° SW 02:20:19 10° SE night (unlit)
24 May - 17:16:36 10° SSW 17:19:47 43° SE 17:23:00 10° ENE daylight
24 May - 18:54:37 10° WNW 18:56:45 16° NW 18:58:53 10° N daylight
25 May - 01:26:12 10° NW 01:29:31 58° NE 01:32:49 10° SE night (unlit)
25 May - 16:29:46 10° S 16:32:25 22° SE 16:35:05 10° ENE daylight
25 May - 18:06:18 10° W 18:09:07 25° NW 18:11:58 10° NNE daylight
